Change the Weather History Date:

Wednesday, May 8, 2013

  Actual Average Record
Temperature  
Mean Temperature 62 °F -  
Max Temperature 70 °F 66 °F 91 °F (2000)
Min Temperature 54 °F 39 °F 26 °F (1968)
Degree Days  
Heating Degree Days 3    
Growing Degree Days 12 (Base 50)    
Moisture  
Dew Point 59 °F    
Average Humidity 89    
Maximum Humidity 100    
Minimum Humidity 71    
Precipitation  
Precipitation 0.65 in - - ()
Sea Level Pressure  
Sea Level Pressure 30.10 in    
Wind  
Wind Speed 4 mph (SE)    
Max Wind Speed 12 mph    
Max Gust Speed 24 mph    
Visibility 7 miles    
Events Fog , Rain , Thunderstorm    
Averages and records for this station are not official NWS values.
T = Trace of Precipitation, MM = Missing Value Source: NWS Daily Summary

Daily Weather History Graph

Daily Weather History Graph

Search for Another Location

Airport or City:

Trip Planner

Search our weather history database for the weather conditions in past years. The results will help you decide how hot, cold, wet, or windy it might be!

Date:

Astronomy

May. 08, 2013 Rise Set
Actual Time 5:36 AM EDT 7:54 PM EDT
Civil Twilight 5:05 AM EDT 8:25 PM EDT
Nautical Twilight 4:26 AM EDT 9:04 PM EDT
Astronomical Twilight 3:44 AM EDT 9:47 PM EDT
Moon 4:43 AM EDT (5/8) 6:49 PM EDT (5/8)
Length of Visible Light 15h 20m
Length of Day
14h 18m
Waning Crescent, 2% of the Moon is Illuminated
May 8
Waning Crescent
May 9
New
May 18
First Quarter
May 25
Full
May 31
Last Quarter

Hourly Weather History & Observations

Time (EDT) Temp. Dew Point Humidity Pressure Visibility Wind Dir Wind Speed Gust Speed Precip Events Conditions
12:52 AM 55.0 °F 53.1 °F 93% 30.16 in 10.0 mi Calm Calm - N/A   Clear
1:52 AM 55.9 °F 54.0 °F 93% 30.14 in 10.0 mi Calm Calm - N/A   Clear
2:52 AM 54.0 °F 52.0 °F 93% 30.13 in 10.0 mi Calm Calm - N/A   Clear
3:16 AM 55.4 °F 53.6 °F 94% 30.14 in 10.0 mi Calm Calm - N/A   Mostly Cloudy
3:52 AM 55.0 °F 53.1 °F 93% 30.14 in 10.0 mi Calm Calm - N/A   Overcast
4:52 AM 55.9 °F 54.0 °F 93% 30.12 in 10.0 mi NE 4.6 mph - N/A   Overcast
5:06 AM 55.4 °F 55.4 °F 100% 30.13 in 4.0 mi Calm Calm - N/A   Overcast
5:31 AM 55.4 °F 53.6 °F 94% 30.14 in 10.0 mi Calm Calm - N/A   Overcast
5:52 AM 55.9 °F 54.0 °F 93% 30.14 in 10.0 mi Calm Calm - N/A   Overcast
6:15 AM 55.4 °F 53.6 °F 94% 30.14 in 10.0 mi North 3.5 mph - N/A   Overcast
6:52 AM 57.0 °F 55.0 °F 93% 30.15 in 10.0 mi Calm Calm - N/A   Mostly Cloudy
7:15 AM 59.0 °F 55.4 °F 88% 30.16 in 10.0 mi North 3.5 mph - N/A   Overcast
7:37 AM 60.8 °F 57.2 °F 88% 30.16 in 10.0 mi NNE 3.5 mph - N/A   Overcast
7:52 AM 62.1 °F 57.0 °F 84% 30.16 in 10.0 mi ENE 3.5 mph - N/A   Overcast
8:05 AM 62.6 °F 57.2 °F 82% 30.16 in 10.0 mi Variable 3.5 mph - N/A   Overcast
8:52 AM 64.0 °F 57.9 °F 80% 30.16 in 10.0 mi Variable 3.5 mph - N/A   Overcast
9:45 AM 66.2 °F 57.2 °F 73% 30.17 in 10.0 mi SE 8.1 mph - N/A   Mostly Cloudy
9:52 AM 66.9 °F 57.9 °F 73% 30.16 in 10.0 mi East 8.1 mph - N/A   Overcast
10:42 AM 66.2 °F 60.8 °F 83% 30.16 in 10.0 mi Variable 5.8 mph - 0.00 in   Overcast
10:52 AM 69.1 °F 60.1 °F 73% 30.15 in 10.0 mi Variable 4.6 mph - 0.00 in   Mostly Cloudy
11:52 AM 66.9 °F 60.1 °F 79% 30.14 in 4.0 mi SSE 11.5 mph 18.4 mph 0.04 in Rain Rain
12:52 PM 70.0 °F 60.1 °F 71% 30.11 in 10.0 mi SE 10.4 mph 19.6 mph 0.01 in   Mostly Cloudy
1:02 PM 69.8 °F 60.8 °F 73% 30.11 in 10.0 mi SE 9.2 mph 19.6 mph 0.00 in Rain Light Rain
1:52 PM 68.0 °F 60.1 °F 76% 30.10 in 10.0 mi SSE 10.4 mph 21.9 mph 0.00 in   Overcast
2:06 PM 68.0 °F 60.8 °F 78% 30.09 in 10.0 mi East 10.4 mph 24.2 mph N/A   Overcast
2:52 PM 66.0 °F 61.0 °F 84% 30.07 in 10.0 mi ESE 8.1 mph 17.3 mph 0.00 in Rain Light Rain
3:18 PM 64.4 °F 62.6 °F 94% 30.08 in 1.2 mi SSW 11.5 mph 19.6 mph 0.18 in Rain , Thunderstorm Heavy Thunderstorms and Rain
3:26 PM 64.4 °F 62.6 °F 94% 30.09 in 0.5 mi South 10.4 mph 19.6 mph 0.40 in Fog , Rain , Thunderstorm Heavy Thunderstorms and Rain
3:31 PM 64.4 °F 62.6 °F 94% 30.08 in 1.2 mi SSE 5.8 mph 16.1 mph 0.40 in Rain Light Rain
3:34 PM 64.4 °F 62.6 °F 94% 30.08 in 3.0 mi SSE 10.4 mph 16.1 mph 0.40 in Rain Light Rain
3:52 PM 64.9 °F 61.0 °F 87% 30.08 in 10.0 mi SSE 10.4 mph 20.7 mph 0.41 in   Overcast
4:39 PM 64.4 °F 60.8 °F 88% 30.08 in 3.0 mi Variable 6.9 mph 16.1 mph 0.05 in Rain Light Rain
4:50 PM 62.6 °F 60.8 °F 94% 30.07 in 2.5 mi Variable 5.8 mph - 0.07 in Rain Light Rain
4:52 PM 63.0 °F 61.0 °F 93% 30.07 in 2.5 mi SSE 9.2 mph - 0.07 in Rain Light Rain
5:06 PM 62.6 °F 60.8 °F 94% 30.07 in 2.0 mi SSE 9.2 mph - 0.04 in Rain Heavy Rain
5:11 PM 62.6 °F 60.8 °F 94% 30.07 in 3.0 mi SE 9.2 mph 17.3 mph 0.05 in Rain Light Rain
5:19 PM 62.6 °F 60.8 °F 94% 30.07 in 9.0 mi SE 8.1 mph 17.3 mph 0.05 in Rain Light Rain
5:33 PM 62.6 °F 60.8 °F 94% 30.07 in 6.0 mi Variable 5.8 mph - 0.05 in Rain Light Rain
5:40 PM 62.6 °F 60.8 °F 94% 30.06 in 10.0 mi SSE 4.6 mph - 0.05 in Rain Light Rain
5:52 PM 63.0 °F 60.1 °F 90% 30.06 in 3.0 mi Variable 4.6 mph - 0.08 in Rain Heavy Rain
5:54 PM 62.6 °F 60.8 °F 94% 30.06 in 2.5 mi Variable 4.6 mph - 0.00 in Rain Heavy Rain
6:07 PM 62.6 °F 60.8 °F 94% 30.06 in 3.0 mi SSE 8.1 mph - 0.03 in Rain Light Rain
6:52 PM 62.1 °F 60.1 °F 93% 30.05 in 7.0 mi Variable 5.8 mph - 0.04 in   Overcast
7:52 PM 62.1 °F 60.1 °F 93% 30.05 in 8.0 mi SSE 5.8 mph - N/A   Overcast
8:52 PM 61.0 °F 59.0 °F 93% 30.06 in 6.0 mi SSE 4.6 mph - N/A   Overcast
9:31 PM 60.8 °F 59.0 °F 94% 30.06 in 2.5 mi Variable 4.6 mph - N/A   Overcast
9:48 PM 60.8 °F 59.0 °F 94% 30.07 in 4.0 mi South 3.5 mph - N/A   Overcast
9:52 PM 60.1 °F 59.0 °F 96% 30.06 in 5.0 mi SSE 3.5 mph - N/A   Overcast
10:52 PM 60.1 °F 59.0 °F 96% 30.06 in 6.0 mi Calm Calm - N/A   Overcast
11:52 PM 59.0 °F 57.9 °F 96% 30.05 in 5.0 mi Calm Calm - N/A   Overcast